Hourly Data Report for May 25, 2022

MIRAMICHI RCS
NEW BRUNSWICK
Current Station Operator: ECCC - MSC

47°00'34.000" N
65°27'54.000" W
33.00 m
8100989
71744
ACQ

Download Data

Hourly Data (May 2022)
Hourly Data Report for May 25, 2022
TIME
LST
Temp Definition
°C
Dew Point Definition
°C
Rel Hum Definition
%
Precip. Amount Definition
mm

Wind Dir Definition
10's deg

Wind Spd Definition
km/h
Visibility Definition
km
Stn Press Definition
kPa
Hmdx Definition


Wind Chill Definition


Weather Definition


00:00 6.8 2.5 74 0.0 28 2   102.38     LegendNANA
01:00 5.4 1.7 77 0.0 29 4   102.38     LegendNANA
02:00 4.3 1.2 80 0.0 24 2   102.36     LegendNANA
03:00 3.4 1.1 85 0.0 0 1   102.34     LegendNANA
04:00 2.1 0.3 88 0.0   0   102.31     LegendNANA
05:00 2.1 -0.5 83 0.0 22 2   102.32     LegendNANA
06:00 4.3 1.9 85 0.0 26 2   102.36     LegendNANA
07:00 8.0 2.3 67 0.0 24 7   102.38     LegendNANA
08:00 12.0 2.6 53 0.0 24 13   102.37     LegendNANA
09:00 14.8 3.7 48 0.0 23 9   102.33     LegendNANA
10:00 17.9 4.4 41 0.0 22 7   102.27     LegendNANA
11:00 19.2 0.6 29 0.0 21 10   102.22     LegendNANA
12:00 20.4 -1.7 23 0.0 19 13   102.15     LegendNANA
13:00 21.0 -2.9 20 0.0 20 13   102.08     LegendNANA
14:00 21.5 -2.4 20 0.0 22 17   102.00     LegendNANA
15:00 22.6 0.8 24 0.0 21 20   101.89     LegendNANA
16:00 23.1 1.8 25 0.0 24 19   101.79     LegendNANA
17:00 23.0 0.8 23 0.0 27 19   101.78     LegendNANA
18:00 22.2 0.9 24 0.0 26 17   101.79     LegendNANA
19:00 22.1 2.4 27 0.0 26 13   101.80     LegendNANA
20:00 18.9 3.7 37 0.0 24 10   101.81     LegendNANA
21:00 17.1 3.4 40 0.0 24 11   101.83     LegendNANA
22:00 15.2 4.4 48 0.0 21 10   101.85     LegendNANA
23:00 14.4 4.9 53 0.0 24 17   101.90     LegendNANA

Notes on Data Quality.

Legend

  • E = Estimated
  • M = Missing
  • NA = Not Available*
  • [empty] = Indicates an unobserved value
Date modified: